Portada
METAR-TAF:

METAR-TAF

Aeroports :

Thoothukudi, Índia

latitud: 8-43-27N, longitud: 78-01-33E, altitud: 39 m

Observació

L'informe es va fer fa 7 hores i 35 minuts, a les 12:00 UTC
Vent 10 kt del Oest/Nord-Oest amb ràfegues de 20 kt
Temperatura 32°C
Humitat 59%
Pressió 1004 hPa
Visibilitat: 6000 m
Escasses núvols a una alçada de 2000 ft
Cel ennuvolat a una alçada de 10000 ft

METAR: VOTK 231200Z 29010G20KT 6000 FEW020 BKN100 32/23 Q1004 NOSIG

Hora: 01:05 (19:35 UTC)


TAF: manca

Observacions i pronòstics meteorològics de més de 4000 aeroports (METAR i TAF).

Les estacions disponibles són els punts grocs i vermells al mapa.

Posi el ratolí al punt desitjat per veure el nom de l'estació.

Feu clic per veure les observacions i els pronòstics meteorològics.

Per canviar el mapa: feu clic els botons verds amb una creu de color negre per apropar; al botó verd amb un guió per allunyar la imatge; o en les fletxes verdes per a mapes adjacents.


METAR-TAF: